Time,TemperatureF,DewpointF,PressureIn,WindDirection,WindDirectionDegrees,WindSpeedMPH,WindSpeedGustMPH,Humidity,HourlyPrecipIn,Conditions,Clouds,dailyrainin,SoftwareType,DateUTC
2013-05-24 00:01:00,54.0,47.0,29.50,East,85,6.0,10.0,76,0.00,,,0.17,,2013-05-24 06:01:00,
2013-05-24 00:12:00,54.0,47.0,29.50,East,85,6.0,10.0,76,0.00,,,0.17,,2013-05-24 06:12:00,
2013-05-24 00:21:00,52.0,46.0,29.51,ESE,102,5.0,8.0,80,0.00,,,0.17,,2013-05-24 06:21:00,
2013-05-24 00:32:00,52.0,47.0,29.51,SSE,149,8.0,13.0,83,0.00,,,0.10,,2013-05-24 06:32:00,
2013-05-24 00:41:00,52.0,47.0,29.51,SSE,149,8.0,13.0,83,0.00,,,0.10,,2013-05-24 06:41:00,
2013-05-24 00:52:00,51.0,47.0,29.53,South,178,7.0,11.0,86,0.00,,,0.10,,2013-05-24 06:52:00,
2013-05-24 01:01:00,51.0,47.0,29.55,South,178,10.0,15.0,87,0.00,,,0.10,,2013-05-24 07:01:00,
2013-05-24 01:11:00,51.0,47.0,29.55,South,178,10.0,15.0,87,0.00,,,0.10,,2013-05-24 07:11:00,
2013-05-24 01:22:00,51.0,48.0,29.54,SSE,150,4.0,10.0,88,0.01,,,0.11,,2013-05-24 07:22:00,
2013-05-24 01:31:00,50.0,47.0,29.52,SE,139,6.0,9.0,90,0.01,,,0.05,,2013-05-24 07:31:00,
2013-05-24 01:42:00,50.0,47.0,29.52,SE,139,6.0,9.0,90,0.01,,,0.05,,2013-05-24 07:42:00,
2013-05-24 01:52:00,50.0,47.0,29.52,South,182,5.0,13.0,91,0.01,,,0.05,,2013-05-24 07:52:00,
2013-05-24 02:02:00,50.0,48.0,29.53,South,178,4.0,7.0,92,0.01,,,0.05,,2013-05-24 08:02:00,
2013-05-24 02:11:00,50.0,48.0,29.53,South,178,4.0,7.0,92,0.01,,,0.05,,2013-05-24 08:11:00,
2013-05-24 02:22:00,50.0,47.0,29.52,South,178,0.0,4.0,91,0.00,,,0.05,,2013-05-24 08:22:00,
2013-05-24 02:32:00,50.0,47.0,29.52,SSW,205,1.0,3.0,91,0.00,,,0.05,,2013-05-24 08:32:00,
2013-05-24 02:41:00,50.0,47.0,29.52,SSW,205,1.0,3.0,91,0.00,,,0.05,,2013-05-24 08:41:00,
2013-05-24 02:51:00,50.0,47.0,29.52,SSW,205,3.0,5.0,90,0.00,,,0.05,,2013-05-24 08:51:00,
2013-05-24 03:01:00,50.0,43.0,29.54,WSW,243,7.0,19.0,78,0.00,,,0.05,,2013-05-24 09:01:00,
2013-05-24 03:11:00,50.0,43.0,29.54,WSW,243,7.0,19.0,78,0.00,,,0.05,,2013-05-24 09:11:00,
2013-05-24 03:21:00,53.0,37.0,29.54,SW,236,12.0,33.0,54,0.00,,,0.05,,2013-05-24 09:21:00,
2013-05-24 03:32:00,53.0,36.0,29.53,SW,233,21.0,34.0,52,0.00,,,0.05,,2013-05-24 09:32:00,
2013-05-24 03:42:00,53.0,36.0,29.53,SW,233,21.0,34.0,52,0.00,,,0.05,,2013-05-24 09:42:00,
2013-05-24 03:52:00,53.0,34.0,29.54,SW,229,15.0,31.0,49,0.00,,,0.05,,2013-05-24 09:52:00,
2013-05-24 04:02:00,52.0,33.0,29.54,WSW,257,14.0,28.0,49,0.00,,,0.05,,2013-05-24 10:02:00,
2013-05-24 04:12:00,52.0,33.0,29.54,WSW,257,14.0,28.0,49,0.00,,,0.05,,2013-05-24 10:12:00,
2013-05-24 04:22:00,52.0,32.0,29.55,ESE,121,17.0,36.0,47,0.00,,,0.05,,2013-05-24 10:22:00,
2013-05-24 04:32:00,51.0,33.0,29.55,WSW,248,14.0,32.0,49,0.00,,,0.05,,2013-05-24 10:32:00,
2013-05-24 04:42:00,51.0,33.0,29.55,WSW,248,14.0,32.0,49,0.00,,,0.05,,2013-05-24 10:42:00,
2013-05-24 04:52:00,51.0,32.0,29.57,WNW,285,15.0,49.0,48,0.00,,,0.05,,2013-05-24 10:52:00,
2013-05-24 05:02:00,51.0,32.0,29.57,SSW,211,19.0,46.0,48,0.00,,,0.05,,2013-05-24 11:02:00,
2013-05-24 05:12:00,51.0,32.0,29.57,SSW,211,19.0,46.0,48,0.00,,,0.05,,2013-05-24 11:12:00,
2013-05-24 05:22:00,50.0,31.0,29.57,West,271,28.0,55.0,48,0.00,,,0.05,,2013-05-24 11:22:00,
2013-05-24 05:32:00,51.0,29.0,29.58,WSW,246,27.0,49.0,42,0.00,,,0.05,,2013-05-24 11:32:00,
2013-05-24 05:41:00,51.0,29.0,29.58,WSW,246,27.0,49.0,42,0.00,,,0.05,,2013-05-24 11:41:00,
2013-05-24 05:51:00,49.0,30.0,29.60,SSW,208,26.0,48.0,47,0.00,,,0.05,,2013-05-24 11:51:00,
2013-05-24 06:01:00,49.0,27.0,29.61,West,261,25.0,47.0,42,0.00,,,0.05,,2013-05-24 12:01:00,
2013-05-24 06:11:00,49.0,27.0,29.61,West,261,25.0,47.0,42,0.00,,,0.05,,2013-05-24 12:11:00,
2013-05-24 06:21:00,49.0,25.0,29.66,South,174,18.0,39.0,39,0.00,,,0.05,,2013-05-24 12:21:00,
2013-05-24 06:32:00,49.0,25.0,29.65,SE,135,10.0,20.0,38,0.00,,,0.05,,2013-05-24 12:32:00,
2013-05-24 06:42:00,49.0,25.0,29.65,SE,135,10.0,20.0,38,0.00,,,0.05,,2013-05-24 12:42:00,
2013-05-24 06:52:00,49.0,23.0,29.64,South,186,12.0,28.0,36,0.00,,,0.05,,2013-05-24 12:52:00,
2013-05-24 07:02:00,50.0,23.0,29.65,South,171,5.0,16.0,35,0.00,,,0.05,,2013-05-24 13:02:00,
2013-05-24 07:11:00,50.0,23.0,29.65,South,171,5.0,16.0,35,0.00,,,0.05,,2013-05-24 13:11:00,
2013-05-24 07:21:00,51.0,25.0,29.67,West,281,8.0,17.0,36,0.00,,,0.05,,2013-05-24 13:21:00,
2013-05-24 07:31:00,51.0,22.0,29.68,South,178,10.0,21.0,32,0.00,,,0.05,,2013-05-24 13:31:00,
2013-05-24 07:41:00,51.0,22.0,29.68,South,178,10.0,21.0,32,0.00,,,0.05,,2013-05-24 13:41:00,
2013-05-24 07:52:00,52.0,25.0,29.68,SE,142,6.0,12.0,34,0.00,,,0.05,,2013-05-24 13:52:00,
2013-05-24 08:01:00,51.0,21.0,29.67,SSE,159,8.0,15.0,30,0.00,,,0.05,,2013-05-24 14:01:00,
2013-05-24 08:11:00,51.0,21.0,29.67,SSE,159,8.0,15.0,30,0.00,,,0.05,,2013-05-24 14:11:00,
2013-05-24 08:21:00,52.0,20.0,29.69,South,190,7.0,15.0,28,0.00,,,0.05,,2013-05-24 14:21:00,
2013-05-24 08:31:00,52.0,22.0,29.70,South,188,8.0,22.0,30,0.00,,,0.05,,2013-05-24 14:31:00,
2013-05-24 08:42:00,52.0,22.0,29.70,South,188,8.0,22.0,30,0.00,,,0.05,,2013-05-24 14:42:00,
2013-05-24 08:51:00,53.0,25.0,29.70,SSW,198,10.0,18.0,34,0.00,,,0.05,,2013-05-24 14:51:00,
2013-05-24 09:02:00,53.0,24.0,29.70,SE,132,7.0,14.0,32,0.00,,,0.05,,2013-05-24 15:02:00,
2013-05-24 09:11:00,53.0,24.0,29.70,SE,132,7.0,14.0,32,0.00,,,0.05,,2013-05-24 15:11:00,
2013-05-24 09:21:00,53.0,22.0,29.70,South,175,11.0,22.0,30,0.00,,,0.05,,2013-05-24 15:21:00,
2013-05-24 09:32:00,54.0,26.0,29.70,SSW,207,12.0,19.0,34,0.00,,,0.05,,2013-05-24 15:32:00,
2013-05-24 09:43:00,54.0,26.0,29.70,SSW,207,12.0,19.0,34,0.00,,,0.05,,2013-05-24 15:43:00,
2013-05-24 09:52:00,55.0,23.0,29.70,SSE,165,16.0,28.0,29,0.00,,,0.05,,2013-05-24 15:52:00,
2013-05-24 10:03:00,55.0,25.0,29.70,SE,143,9.0,20.0,31,0.00,,,0.05,,2013-05-24 16:03:00,
2013-05-24 10:12:00,55.0,25.0,29.70,SE,143,9.0,20.0,31,0.00,,,0.05,,2013-05-24 16:12:00,
2013-05-24 10:22:00,56.0,25.0,29.70,South,179,11.0,22.0,30,0.00,,,0.05,,2013-05-24 16:22:00,
2013-05-24 10:32:00,57.0,26.0,29.70,SSE,161,9.0,21.0,30,0.00,,,0.05,,2013-05-24 16:32:00,
2013-05-24 10:42:00,57.0,26.0,29.70,SSE,161,9.0,21.0,30,0.00,,,0.05,,2013-05-24 16:42:00,
2013-05-24 10:52:00,57.0,27.0,29.69,SSE,150,10.0,12.0,31,0.00,,,0.05,,2013-05-24 16:52:00,
2013-05-24 11:01:00,57.0,24.0,29.69,SW,219,17.0,36.0,28,0.00,,,0.05,,2013-05-24 17:01:00,
2013-05-24 11:12:00,57.0,24.0,29.69,SW,219,17.0,36.0,28,0.00,,,0.05,,2013-05-24 17:12:00,
2013-05-24 11:22:00,58.0,21.0,29.69,South,180,10.0,36.0,24,0.00,,,0.05,,2013-05-24 17:22:00,
2013-05-24 11:32:00,59.0,21.0,29.69,West,261,16.0,32.0,23,0.00,,,0.05,,2013-05-24 17:32:00,
2013-05-24 11:41:00,59.0,21.0,29.69,West,261,16.0,32.0,23,0.00,,,0.05,,2013-05-24 17:41:00,
2013-05-24 11:52:00,59.0,23.0,29.70,SSW,193,10.0,27.0,25,0.00,,,0.05,,2013-05-24 17:52:00,
2013-05-24 12:01:00,59.0,20.0,29.70,SW,235,21.0,36.0,22,0.00,,,0.05,,2013-05-24 18:01:00,
2013-05-24 12:11:00,59.0,20.0,29.70,SW,235,21.0,36.0,22,0.00,,,0.05,,2013-05-24 18:11:00,
2013-05-24 12:21:00,60.0,22.0,29.70,SE,143,7.0,18.0,23,0.00,,,0.05,,2013-05-24 18:21:00,
2013-05-24 12:32:00,61.0,24.0,29.70,South,181,9.0,20.0,24,0.00,,,0.05,,2013-05-24 18:32:00,
2013-05-24 12:41:00,61.0,24.0,29.70,South,181,9.0,20.0,24,0.00,,,0.05,,2013-05-24 18:41:00,
2013-05-24 12:51:00,61.0,22.0,29.70,SSE,153,8.0,21.0,22,0.00,,,0.05,,2013-05-24 18:51:00,
2013-05-24 13:01:00,63.0,22.0,29.70,SE,144,6.0,15.0,21,0.00,,,0.05,,2013-05-24 19:01:00,
2013-05-24 13:11:00,63.0,22.0,29.70,SE,144,6.0,15.0,21,0.00,,,0.05,,2013-05-24 19:11:00,
2013-05-24 13:21:00,64.0,24.0,29.69,SE,128,11.0,19.0,22,0.00,,,0.05,,2013-05-24 19:21:00,
2013-05-24 13:31:00,64.0,24.0,29.68,SSE,148,12.0,20.0,22,0.00,,,0.05,,2013-05-24 19:31:00,
2013-05-24 13:41:00,64.0,24.0,29.68,SSE,148,12.0,20.0,22,0.00,,,0.05,,2013-05-24 19:41:00,
2013-05-24 13:52:00,65.0,22.0,29.68,SE,146,3.0,14.0,19,0.00,,,0.05,,2013-05-24 19:52:00,
2013-05-24 14:02:00,65.0,26.0,29.68,SW,231,2.0,16.0,23,0.00,,,0.05,,2013-05-24 20:02:00,
2013-05-24 14:11:00,65.0,26.0,29.68,SW,231,2.0,16.0,23,0.00,,,0.05,,2013-05-24 20:11:00,
2013-05-24 14:21:00,66.0,27.0,29.67,ENE,78,5.0,11.0,23,0.00,,,0.05,,2013-05-24 20:21:00,
2013-05-24 14:31:00,66.0,23.0,29.66,SW,224,9.0,18.0,19,0.00,,,0.05,,2013-05-24 20:31:00,
2013-05-24 14:41:00,66.0,23.0,29.66,SW,224,9.0,18.0,19,0.00,,,0.05,,2013-05-24 20:41:00,
2013-05-24 14:51:00,66.0,23.0,29.66,SE,134,3.0,21.0,19,0.00,,,0.05,,2013-05-24 20:51:00,
2013-05-24 15:01:00,67.0,23.0,29.66,South,181,13.0,21.0,19,0.00,,,0.05,,2013-05-24 21:01:00,
2013-05-24 15:11:00,67.0,23.0,29.66,South,181,13.0,21.0,19,0.00,,,0.05,,2013-05-24 21:11:00,
2013-05-24 15:21:00,67.0,22.0,29.66,ENE,74,9.0,21.0,18,0.00,,,0.05,,2013-05-24 21:21:00,
2013-05-24 15:32:00,68.0,23.0,29.66,SSW,193,9.0,20.0,18,0.00,,,0.05,,2013-05-24 21:32:00,
2013-05-24 15:42:00,68.0,23.0,29.66,SSW,193,9.0,20.0,18,0.00,,,0.05,,2013-05-24 21:42:00,
2013-05-24 15:52:00,69.0,22.0,29.65,SSW,201,8.0,16.0,17,0.00,,,0.05,,2013-05-24 21:52:00,
2013-05-24 16:02:00,69.0,25.0,29.65,WSW,256,9.0,21.0,19,0.00,,,0.05,,2013-05-24 22:02:00,
2013-05-24 16:12:00,69.0,25.0,29.65,WSW,256,9.0,21.0,19,0.00,,,0.05,,2013-05-24 22:12:00,
2013-05-24 16:22:00,70.0,26.0,29.65,SW,215,8.0,18.0,19,0.00,,,0.05,,2013-05-24 22:22:00,
2013-05-24 16:32:00,69.0,21.0,29.64,WNW,283,7.0,17.0,16,0.00,,,0.05,,2013-05-24 22:32:00,
2013-05-24 16:42:00,69.0,21.0,29.64,WNW,283,7.0,17.0,16,0.00,,,0.05,,2013-05-24 22:42:00,
2013-05-24 16:52:00,70.0,22.0,29.63,SSW,211,10.0,21.0,16,0.00,,,0.05,,2013-05-24 22:52:00,
2013-05-24 17:02:00,70.0,22.0,29.64,SW,227,12.0,20.0,16,0.00,,,0.05,,2013-05-24 23:02:00,
2013-05-24 17:11:00,70.0,22.0,29.64,SW,227,12.0,20.0,16,0.00,,,0.05,,2013-05-24 23:11:00,
2013-05-24 17:22:00,70.0,23.0,29.64,SW,215,8.0,21.0,17,0.00,,,0.05,,2013-05-24 23:22:00,
2013-05-24 17:32:00,70.0,23.0,29.64,SW,231,14.0,26.0,17,0.00,,,0.05,,2013-05-24 23:32:00,
2013-05-24 17:42:00,70.0,23.0,29.64,SW,231,14.0,26.0,17,0.00,,,0.05,,2013-05-24 23:42:00,
2013-05-24 17:52:00,70.0,23.0,29.64,SW,221,10.0,27.0,17,0.00,,,0.05,,2013-05-24 23:52:00,
2013-05-24 18:01:00,69.0,21.0,29.63,West,261,11.0,21.0,16,0.00,,,0.05,,2013-05-25 00:01:00,
2013-05-24 18:11:00,69.0,21.0,29.63,West,261,11.0,21.0,16,0.00,,,0.05,,2013-05-25 00:11:00,
2013-05-24 18:21:00,70.0,19.0,29.64,WSW,250,10.0,17.0,14,0.00,,,0.05,,2013-05-25 00:21:00,
2013-05-24 18:32:00,69.0,19.0,29.64,SSW,194,12.0,21.0,15,0.00,,,0.05,,2013-05-25 00:32:00,
2013-05-24 18:41:00,69.0,19.0,29.64,SSW,194,12.0,21.0,15,0.00,,,0.05,,2013-05-25 00:41:00,
2013-05-24 18:51:00,69.0,19.0,29.63,SSW,196,7.0,13.0,15,0.00,,,0.05,,2013-05-25 00:51:00,
2013-05-24 19:01:00,69.0,21.0,29.63,SW,228,6.0,11.0,16,0.00,,,0.05,,2013-05-25 01:01:00,
2013-05-24 19:11:00,69.0,21.0,29.63,SW,228,6.0,11.0,16,0.00,,,0.05,,2013-05-25 01:11:00,
2013-05-24 19:21:00,69.0,24.0,29.63,SW,220,7.0,11.0,18,0.00,,,0.05,,2013-05-25 01:21:00,
2013-05-24 19:32:00,68.0,19.0,29.63,SW,229,10.0,14.0,15,0.00,,,0.05,,2013-05-25 01:32:00,
2013-05-24 19:41:00,68.0,19.0,29.63,SW,229,10.0,14.0,15,0.00,,,0.05,,2013-05-25 01:41:00,
2013-05-24 19:52:00,68.0,22.0,29.63,WSW,240,8.0,11.0,17,0.00,,,0.05,,2013-05-25 01:52:00,
2013-05-24 20:01:00,67.0,22.0,29.64,SSW,209,5.0,15.0,18,0.00,,,0.05,,2013-05-25 02:01:00,
2013-05-24 20:11:00,67.0,22.0,29.64,SSW,209,5.0,15.0,18,0.00,,,0.05,,2013-05-25 02:11:00,
2013-05-24 20:21:00,67.0,22.0,29.64,SSW,209,5.0,15.0,18,0.00,,,0.05,,2013-05-25 02:21:00,
2013-05-24 20:31:00,64.0,18.0,29.64,West,266,8.0,13.0,17,0.00,,,0.03,,2013-05-25 02:31:00,
2013-05-24 20:42:00,64.0,18.0,29.64,West,266,8.0,13.0,17,0.00,,,0.03,,2013-05-25 02:42:00,
2013-05-24 20:52:00,64.0,18.0,29.65,South,169,7.0,16.0,17,0.00,,,0.03,,2013-05-25 02:52:00,
2013-05-24 21:01:00,63.0,20.0,29.65,South,171,2.0,7.0,19,0.00,,,0.03,,2013-05-25 03:01:00,
2013-05-24 21:11:00,63.0,20.0,29.65,South,171,2.0,7.0,19,0.00,,,0.03,,2013-05-25 03:11:00,
2013-05-24 21:21:00,61.0,24.0,29.65,West,264,7.0,12.0,24,0.00,,,0.03,,2013-05-25 03:21:00,
2013-05-24 21:32:00,60.0,25.0,29.66,West,259,9.0,13.0,26,0.00,,,0.01,,2013-05-25 03:32:00,
2013-05-24 21:43:00,60.0,25.0,29.66,West,259,9.0,13.0,26,0.00,,,0.01,,2013-05-25 03:43:00,
2013-05-24 21:53:00,59.0,23.0,29.66,West,259,9.0,13.0,25,0.00,,,0.01,,2013-05-25 03:53:00,
2013-05-24 22:02:00,60.0,23.0,29.67,WSW,257,10.0,14.0,24,0.00,,,0.01,,2013-05-25 04:02:00,
2013-05-24 22:12:00,60.0,23.0,29.67,WSW,257,10.0,14.0,24,0.00,,,0.01,,2013-05-25 04:12:00,
2013-05-24 22:23:00,59.0,24.0,29.67,West,263,10.0,18.0,26,0.00,,,0.01,,2013-05-25 04:23:00,
2013-05-24 22:32:00,59.0,21.0,29.67,WSW,254,11.0,18.0,23,0.00,,,0.01,,2013-05-25 04:32:00,
2013-05-24 22:43:00,59.0,21.0,29.67,WSW,254,11.0,18.0,23,0.00,,,0.01,,2013-05-25 04:43:00,
2013-05-24 22:52:00,59.0,23.0,29.67,West,264,9.0,17.0,25,0.00,,,0.01,,2013-05-25 04:52:00,
2013-05-24 23:02:00,59.0,22.0,29.68,WNW,285,10.0,16.0,24,0.00,,,0.01,,2013-05-25 05:02:00,
2013-05-24 23:12:00,59.0,22.0,29.68,WNW,285,10.0,16.0,24,0.00,,,0.01,,2013-05-25 05:12:00,
2013-05-24 23:22:00,59.0,22.0,29.68,West,272,9.0,16.0,24,0.00,,,0.01,,2013-05-25 05:22:00,
2013-05-24 23:32:00,58.0,21.0,29.69,SW,225,8.0,14.0,24,0.00,,,0.01,,2013-05-25 05:32:00,
2013-05-24 23:42:00,58.0,21.0,29.69,SW,225,8.0,14.0,24,0.00,,,0.01,,2013-05-25 05:42:00,
2013-05-24 23:52:00,57.0,27.0,29.69,South,174,3.0,7.0,31,0.00,,,0.01,,2013-05-25 05:52:00,